Fort Campbell, KY

1:39 PM CST on January 23, 2017 (GMT -0600)
Campbell Army Air Field

Weather History for KHOP - February, 2014

Change the Weather History Date:

Tuesday, February 4, 2014

  Actual Average Record
Temperature  
Mean Temperature 30 °F -  
Max Temperature 32 °F 46 °F 68 °F (2008)
Min Temperature 28 °F 29 °F 12 °F (2009)
Degree Days  
Heating Degree Days 35    
Moisture  
Dew Point 31 °F    
Average Humidity 100    
Maximum Humidity 100    
Minimum Humidity 99    
Precipitation  
Precipitation 2.24 in - - ()
Sea Level Pressure  
Sea Level Pressure 30.04 in    
Wind  
Wind Speed 1 mph (ENE)    
Max Wind Speed 12 mph    
Max Gust Speed -    
Visibility 5 miles    
Events Rain    
Averages and records for this station are not official NWS values.
T = Trace of Precipitation, MM = Missing Value Source: NWS Daily Summary

Daily Weather History Graph

Daily Weather History Graph

Search for Another Location

Airport or City:

Trip Planner

Search our weather history database for the weather conditions in past years. The results will help you decide how hot, cold, wet, or windy it might be!

Date:

Astronomy

Feb. 04, 2014 Rise Set
Actual Time 6:49 AM CST 5:18 PM CST
Civil Twilight 6:22 AM CST 5:46 PM CST
Nautical Twilight 5:51 AM CST 6:16 PM CST
Astronomical Twilight 5:21 AM CST 6:47 PM CST
Moon 9:36 AM CST (2/4) 11:02 PM CST (2/4)
Length of Visible Light 11h 23m
Length of Day
10h 29m
Waxing Crescent, 29% of the Moon is Illuminated
Feb 4
Waxing Crescent
Feb 6
First Quarter
Feb 14
Full
Feb 22
Last Quarter
Mar 1
New

Hourly Weather History & Observations

Time (CST) Temp. Windchill Dew Point Humidity Pressure Visibility Wind Dir Wind Speed Gust Speed Precip Events Conditions
12:26 AM 28.4 °F - 28.4 °F 100% 30.26 in 10.0 mi Calm Calm - N/A   Overcast
12:52 AM 28.4 °F - 28.4 °F 100% 30.26 in 9.0 mi Calm Calm - N/A   Overcast
12:58 AM 28.0 °F - 28.0 °F 100% 30.28 in 9.0 mi Calm Calm - N/A   Overcast
1:23 AM 28.4 °F - 28.4 °F 100% 30.25 in 8.0 mi Calm Calm - N/A   Overcast
1:35 AM 28.4 °F - 28.4 °F 100% 30.25 in 7.0 mi Calm Calm - N/A   Overcast
1:52 AM 28.4 °F - 28.4 °F 100% 30.26 in 6.0 mi Calm Calm - N/A   Overcast
1:58 AM 28.2 °F - 28.2 °F 100% 30.29 in 6.0 mi Calm Calm - N/A   Overcast
2:53 AM 28.4 °F - 28.4 °F 100% 30.23 in 4.0 mi Calm Calm - N/A   Overcast
2:58 AM 28.2 °F - 28.2 °F 100% 30.27 in 4.0 mi Calm Calm - N/A   Overcast
3:39 AM 28.4 °F - 28.4 °F 100% 30.22 in 4.0 mi East 1.2 mph - N/A   Overcast
3:58 AM 28.9 °F - 28.9 °F 100% 30.26 in 5.0 mi Calm Calm - N/A   Overcast
4:58 AM 29.3 °F - 29.3 °F 100% 30.26 in 5.0 mi NE 1.2 mph - N/A   Overcast
5:45 AM 28.4 °F - 28.4 °F 100% 30.24 in 4.0 mi ENE 1.2 mph - N/A   Overcast
5:58 AM 29.3 °F - 29.3 °F 100% 30.25 in 4.0 mi ENE 1.2 mph - N/A   Overcast
6:48 AM 30.2 °F - 30.2 °F 100% 30.21 in 2.5 mi ENE 1.2 mph - N/A   Overcast
6:55 AM 30.2 °F - 30.2 °F 100% 30.21 in 1.8 mi ENE 1.2 mph - N/A   Overcast
6:58 AM 29.5 °F - 29.5 °F 100% 30.23 in 1.8 mi ENE 1.2 mph - N/A   Overcast
7:12 AM 30.2 °F - 30.2 °F 100% 30.20 in 2.0 mi Calm Calm - N/A   Overcast
7:30 AM 30.2 °F - 30.2 °F 100% 30.19 in 3.0 mi East 1.2 mph - N/A   Overcast
7:40 AM 30.2 °F - 30.2 °F 100% 30.18 in 4.0 mi East 1.2 mph - N/A   Overcast
7:58 AM 30.2 °F - 30.2 °F 100% 30.22 in 5.0 mi East 1.2 mph - N/A   Overcast
8:14 AM 32.0 °F - 32.0 °F 100% 30.19 in 6.0 mi East 1.2 mph - N/A   Overcast
8:53 AM 32.0 °F - 32.0 °F 100% 30.20 in 7.0 mi ENE 1.2 mph - N/A   Overcast
8:58 AM 31.5 °F - 31.5 °F 100% 30.22 in 7.0 mi East 1.2 mph - N/A   Overcast
9:58 AM 31.8 °F - 31.8 °F 100% 30.19 in 7.0 mi Calm Calm - N/A   Overcast
10:27 AM 32.0 °F - 32.0 °F 100% 30.13 in 6.0 mi East 1.2 mph - N/A   Overcast
10:46 AM 32.0 °F - 32.0 °F 100% 30.11 in 5.0 mi ENE 1.2 mph - N/A Rain Light Rain
10:58 AM 32.0 °F - 32.0 °F 100% 30.14 in 4.0 mi ENE 1.2 mph - 0.00 in Rain Light Rain
11:46 AM 32.0 °F - 32.0 °F 100% 30.12 in 6.0 mi NNE 1.2 mph - N/A Rain Light Rain
11:47 AM 32.0 °F - 32.0 °F 100% 30.12 in 6.0 mi NNE 1.2 mph - N/A Rain Light Rain
11:58 AM 32.2 °F - 32.2 °F 100% 30.15 in 6.0 mi NNE 1.2 mph - 0.02 in Rain Light Rain
12:02 PM 32.0 °F - 32.0 °F 100% 30.13 in 7.0 mi NNE 1.2 mph - N/A Rain Light Rain
12:26 PM 32.0 °F - 32.0 °F 100% 30.06 in 4.0 mi NE 1.2 mph - N/A Rain Rain
12:33 PM 32.0 °F - 32.0 °F 100% 30.05 in 4.0 mi NNE 1.2 mph - N/A Rain Light Rain
12:42 PM 32.0 °F - 32.0 °F 100% 30.04 in 5.0 mi NE 1.2 mph - N/A Rain Light Rain
12:58 PM 32.0 °F - 32.0 °F 100% 30.09 in 7.0 mi NE 1.2 mph - 0.04 in Rain Light Rain
1:12 PM 32.0 °F - 32.0 °F 100% 30.05 in 5.0 mi NE 1.2 mph - N/A Rain Light Rain
1:21 PM 32.0 °F - 32.0 °F 100% 30.09 in 5.0 mi Calm Calm - N/A Rain Light Rain
1:58 PM 32.2 °F - 32.2 °F 100% 30.00 in 3.0 mi ENE 1.2 mph - 0.14 in Rain Rain
2:00 PM 32.0 °F - 32.0 °F 100% 29.97 in 3.0 mi NE 1.2 mph - N/A Rain Rain
2:05 PM 32.0 °F - 32.0 °F 100% 29.96 in 4.0 mi ENE 1.2 mph - N/A Rain Light Rain
2:10 PM 32.0 °F - 32.0 °F 100% 29.94 in 4.0 mi ENE 1.2 mph - N/A Rain Light Rain
2:17 PM 32.0 °F - 32.0 °F 100% 29.95 in 4.0 mi ENE 1.2 mph - N/A Rain Rain
2:23 PM 32.0 °F - 32.0 °F 100% 29.94 in 5.0 mi ENE 1.2 mph - N/A Rain Light Rain
2:58 PM 32.2 °F - 32.2 °F 100% 29.99 in 3.0 mi ENE 1.2 mph - 0.12 in Rain Rain
3:06 PM 32.0 °F - 32.0 °F 100% 29.92 in 2.5 mi ENE 1.2 mph - N/A Rain Rain
3:16 PM 32.0 °F - 32.0 °F 100% 29.92 in 4.0 mi ENE 1.2 mph - N/A Rain Light Rain
3:25 PM 32.0 °F - 32.0 °F 100% 29.90 in 4.0 mi ENE 1.2 mph - N/A Rain Rain
3:46 PM 32.0 °F - 32.0 °F 100% 29.92 in 3.0 mi Calm Calm - N/A Rain Rain
3:57 PM 32.0 °F - 32.0 °F 100% 29.90 in 2.5 mi East 1.2 mph - N/A Rain Heavy Rain
3:58 PM 32.2 °F - 32.2 °F 100% 29.92 in 2.5 mi East 1.2 mph - 0.23 in Rain Heavy Rain
4:02 PM 32.0 °F - 32.0 °F 100% 29.88 in 1.8 mi ENE 1.2 mph - N/A Rain Heavy Rain
4:07 PM 32.0 °F - 32.0 °F 100% 29.89 in 2.0 mi Calm Calm - N/A Rain Rain
4:13 PM 32.0 °F - 32.0 °F 100% 29.88 in 1.8 mi East 1.2 mph - N/A Rain Heavy Rain
4:23 PM 32.0 °F - 32.0 °F 100% 29.91 in 1.5 mi Calm Calm - N/A Rain Rain
4:41 PM 32.0 °F - 32.0 °F 100% 29.85 in 2.0 mi ESE 2.3 mph - N/A Rain Light Rain
4:50 PM 32.0 °F - 32.0 °F 100% 29.87 in 1.8 mi East 1.2 mph - N/A Rain Rain
4:59 PM 32.2 °F - 32.2 °F 100% 29.91 in 2.5 mi Calm Calm - 0.51 in Rain Rain
5:06 PM 32.0 °F - 32.0 °F 100% 29.87 in 3.0 mi ENE 1.2 mph - N/A Rain Rain
5:58 PM 32.7 °F - 32.5 °F 99% 29.90 in 5.0 mi Calm Calm - 0.30 in Rain Heavy Rain
6:58 PM 32.5 °F - 32.5 °F 100% 29.90 in 4.0 mi Calm Calm - 0.35 in Rain Heavy Rain
7:58 PM 32.4 °F - 32.4 °F 100% 29.90 in 5.0 mi Calm Calm - 0.31 in Rain Heavy Rain
8:19 PM 32.0 °F - 32.0 °F 100% 29.86 in 5.0 mi Calm Calm - N/A Rain Heavy Rain
8:22 PM 32.0 °F - 32.0 °F 100% 29.84 in 5.0 mi NNE 1.2 mph - N/A Rain Heavy Rain
8:31 PM 32.0 °F - 32.0 °F 100% 29.80 in 4.0 mi NE 1.2 mph - N/A Rain Light Rain
8:58 PM 32.2 °F 25.0 °F 32.2 °F 100% 29.81 in 4.0 mi East 8.1 mph - 0.16 in Rain Light Rain
9:05 PM 32.0 °F 24.2 °F 32.0 °F 100% 29.81 in 4.0 mi East 9.2 mph - N/A Rain Light Rain
9:22 PM 32.0 °F 23.0 °F 32.0 °F 100% 29.78 in 6.0 mi East 11.5 mph - N/A Rain Light Rain
9:48 PM 32.0 °F 28.7 °F 32.0 °F 100% 29.80 in 6.0 mi SSE 3.5 mph - N/A Rain Light Rain
9:58 PM 32.7 °F 29.6 °F 32.7 °F 100% 29.85 in 6.0 mi SSW 3.5 mph - 0.06 in Rain Light Rain
10:27 PM 32.0 °F - 32.0 °F 100% 29.83 in 4.0 mi SSW 2.3 mph - N/A Rain Rain
10:44 PM 32.0 °F - 32.0 °F 100% 29.82 in 6.0 mi Calm Calm - N/A   Overcast
10:58 PM 32.4 °F - 32.4 °F 100% 29.83 in 7.0 mi Calm Calm - 0.00 in   Overcast
11:04 PM 32.0 °F - 32.0 °F 100% 29.82 in 8.0 mi Calm Calm - N/A   Overcast
11:58 PM 32.4 °F 27.9 °F 32.4 °F 100% 29.84 in 6.0 mi West 4.6 mph - N/A   Overcast